Cedar Rapids, IA

11:54 PM CST on December 13, 2019 (GMT -0600)
The Eastern Iowa Airport

Weather History for KCID - August, 2019

Change the Weather History Date:

Thursday, August 15, 2019

  Actual Average Record
Temperature  
Mean Temperature 66 °F 71 °F  
Max Temperature 76 °F 82 °F 102 °F (1988)
Min Temperature 55 °F 61 °F 41 °F (1929)
Degree Days  
Heating Degree Days 0 0  
Month to date heating degree days 0 0  
Since 1 June heating degree days 11 33  
Since 1 July heating degree days 0 4  
Cooling Degree Days 1 7  
Month to date cooling degree days 99 107  
Year to date cooling degree days 601 574  
Since 1 June cooling degree days 573 525  
Growing Degree Days 15 (Base 50)    
Moisture  
Dew Point 59 °F    
Average Humidity 79    
Maximum Humidity 100    
Minimum Humidity 58    
Precipitation  
Precipitation 0.00 in 0.16 in 3.29 in (1977)
Month to date precipitation 1.42 2.16  
Year to date precipitation 24.01 22.98  
Sea Level Pressure  
Sea Level Pressure 30.03 in    
Wind  
Wind Speed 3 mph (WNW)    
Max Wind Speed 8 mph    
Max Gust Speed 12 mph    
Visibility 6 miles    
Events Fog    
T = Trace of Precipitation, MM = Missing Value Source: NWS Daily Summary

Daily Weather History Graph

Daily Weather History Graph

Search for Another Location

Airport or City:

Astronomy

Aug. 15, 2019 Rise Set
Actual Time 6:14 AM CDT 8:07 PM CDT
Civil Twilight 5:44 AM CDT 8:37 PM CDT
Nautical Twilight 5:08 AM CDT 9:13 PM CDT
Astronomical Twilight 4:28 AM CDT 9:53 PM CDT
Moon 8:36 PM CDT (8/15) 6:08 AM CDT (8/15)
Length of Visible Light 14h 52m
Length of Day
13h 52m
Full, 100% of the Moon is Illuminated
Aug 15
Full
Aug 23
Last Quarter
Aug 30
New
Sep 5
First Quarter
Sep 13
Full

Hourly Weather History & Observations

Time (CDT) Temp. Dew Point Humidity Pressure Visibility Wind Dir Wind Speed Gust Speed Precip Events Conditions
12:52 AM 61.0 °F 61.0 °F 100% 30.04 in 7.0 mi NNW 4.6 mph - N/A   Clear
1:52 AM 61.0 °F 61.0 °F 100% 30.04 in 7.0 mi North 3.5 mph - N/A   Clear
2:29 AM 59.0 °F 59.0 °F 100% 30.05 in 2.0 mi WNW 5.8 mph - N/A   Clear
2:39 AM 57.0 °F 57.0 °F 100% 30.05 in 3.0 mi West 4.6 mph - N/A   Clear
2:49 AM 57.2 °F 57.2 °F 100% 30.05 in 2.0 mi WNW 4.6 mph - N/A   Clear
2:52 AM 57.0 °F 57.0 °F 100% 30.05 in 2.5 mi WNW 4.6 mph - N/A   Clear
2:58 AM 57.0 °F 57.0 °F 100% 30.05 in 2.0 mi West 3.5 mph - N/A   Partly Cloudy
3:01 AM 57.0 °F 57.0 °F 100% 30.05 in 1.0 mi NW 3.5 mph - N/A   Mist
3:10 AM 57.0 °F 57.0 °F 100% 30.05 in 2.5 mi NW 4.6 mph - N/A   Partly Cloudy
3:17 AM 57.0 °F 57.0 °F 100% 30.05 in 5.0 mi NW 3.5 mph - N/A   Partly Cloudy
3:52 AM 57.0 °F 57.0 °F 100% 30.04 in 4.0 mi Calm Calm - N/A   Scattered Clouds
4:01 AM 57.0 °F 57.0 °F 100% 30.05 in 2.5 mi NW 4.6 mph - N/A   Scattered Clouds
4:09 AM 57.0 °F 57.0 °F 100% 30.05 in 3.0 mi NW 4.6 mph - N/A   Scattered Clouds
4:11 AM 57.0 °F 57.0 °F 100% 30.05 in 1.8 mi NW 3.5 mph - N/A   Mostly Cloudy
4:21 AM 57.0 °F 57.0 °F 100% 30.05 in 0.5 mi NNW 4.6 mph - N/A Fog Fog
4:43 AM 57.0 °F 57.0 °F 100% 30.04 in 1.8 mi NNW 4.6 mph - N/A   Scattered Clouds
4:48 AM 57.2 °F 57.2 °F 100% 30.04 in 3.0 mi NNW 4.6 mph - N/A   Scattered Clouds
4:52 AM 57.0 °F 57.0 °F 100% 30.03 in 4.0 mi NW 4.6 mph - N/A   Partly Cloudy
5:52 AM 55.9 °F 55.9 °F 100% 30.04 in 4.0 mi NNW 4.6 mph - N/A   Scattered Clouds
5:56 AM 57.0 °F 57.0 °F 100% 30.05 in 1.0 mi NNW 4.6 mph - N/A   Mist
6:03 AM 57.0 °F 57.0 °F 100% 30.04 in 1.0 mi North 4.6 mph - N/A   Mist
6:05 AM 57.0 °F 57.0 °F 100% 30.05 in 1.0 mi North 4.6 mph - N/A   Mist
6:12 AM 55.9 °F 55.9 °F 100% 30.05 in 1.0 mi NW 5.8 mph - N/A   Mist
6:26 AM 55.9 °F 55.9 °F 100% 30.06 in 1.0 mi NW 4.6 mph - N/A   Mist
6:37 AM 55.9 °F 55.9 °F 100% 30.05 in 1.0 mi Calm Calm - N/A   Mist
6:52 AM 57.0 °F 57.0 °F 100% 30.06 in 1.0 mi NW 3.5 mph - N/A   Mist
7:03 AM 57.0 °F 57.0 °F 100% 30.07 in 10.0 mi Calm Calm - N/A Fog Shallow Fog
8:52 AM 66.9 °F 63.0 °F 87% 30.05 in 10.0 mi Calm Calm - N/A Fog Shallow Fog
9:52 AM 69.1 °F 62.1 °F 78% 30.04 in 10.0 mi Calm Calm - N/A   Clear
10:52 AM 71.1 °F 62.1 °F 73% 30.04 in 10.0 mi Calm Calm - N/A   Clear
11:52 AM 73.0 °F 59.0 °F 61% 30.04 in 10.0 mi Calm Calm - N/A   Clear
12:52 PM 73.9 °F 62.1 °F 66% 30.02 in 10.0 mi Calm Calm - N/A   Partly Cloudy
1:52 PM 75.0 °F 59.0 °F 57% 30.01 in 10.0 mi SSW 4.6 mph - N/A   Mostly Cloudy
2:52 PM 75.9 °F 60.1 °F 58% 30.00 in 10.0 mi Calm Calm - N/A   Clear
3:52 PM 75.0 °F 61.0 °F 62% 29.99 in 10.0 mi WSW 5.8 mph - N/A   Clear
4:52 PM 73.9 °F 62.1 °F 66% 29.97 in 10.0 mi South 5.8 mph - N/A   Clear
5:52 PM 72.0 °F 64.0 °F 76% 29.96 in 10.0 mi South 3.5 mph - N/A   Clear
6:52 PM 73.0 °F 63.0 °F 71% 29.96 in 10.0 mi SSW 5.8 mph - N/A   Mostly Cloudy
7:52 PM 70.0 °F 63.0 °F 78% 29.93 in 10.0 mi South 3.5 mph - N/A   Partly Cloudy
8:52 PM 68.0 °F 63.0 °F 84% 29.94 in 10.0 mi SSE 3.5 mph - N/A   Overcast
9:52 PM 64.0 °F 63.0 °F 96% 29.95 in 10.0 mi SSE 5.8 mph - N/A   Mostly Cloudy
10:52 PM 64.0 °F 62.1 °F 93% 29.94 in 10.0 mi SSE 4.6 mph - N/A   Clear
11:52 PM 64.9 °F 62.1 °F 90% 29.94 in 10.0 mi SSE 4.6 mph - N/A   Partly Cloudy